Retour au catalogue

POLYTECH UNIVERS-3

ActifRadio amateurSSO
NORAD 57191·PAYLOAD·🇷🇺 Russia
Ce nom de satellite n'a pas encore été confirmé par des sources officielles.

Lancé Jun 27, 2023 depuis Vostochny Cosmodrome

Loading…

Prochains Passages (prochaines 24 heures)

TLE

FraisSource: Space-Track

Époque: Sep 14, 2026, 12:08 UTC

1 57191U 23091AB  26257.50574373  .00004005  00000-0  18964-3 0  9994
2 57191  97.4952 314.7148 0015424 172.2368 187.9109 15.19814861177514

Suivez POLYTECH UNIVERS-3 en temps réel avec AllMySat

Download on the App Store